Weather History for KFYV - January, 2013

Change the Weather History Date:

Saturday, January 12, 2013

  Actual Average Record
Temperature  
Mean Temperature 45 °F 35 °F  
Max Temperature 58 °F 46 °F 71 °F (1995)
Min Temperature 32 °F 25 °F -2 °F (1973)
Degree Days  
Heating Degree Days 20 30  
Month to date heating degree days 314 360  
Since 1 July heating degree days 1832 2043  
Moisture  
Dew Point 40 °F    
Average Humidity 71    
Maximum Humidity 96    
Minimum Humidity 46    
Precipitation  
Precipitation 0.17 in 0.09 in - ()
Month to date precipitation 0.35 1.12  
Year to date precipitation 0.35 1.12  
Sea Level Pressure  
Sea Level Pressure 29.86 in    
Wind  
Wind Speed 8 mph (North)    
Max Wind Speed 17 mph    
Max Gust Speed 23 mph    
Visibility 9 miles    
Events Rain , Thunderstorm    
T = Trace of Precipitation, MM = Missing Value Source: NWS Daily Summary

Daily Weather History Graph

Daily Weather History Graph

Search for Another Location

Airport or City:

Trip Planner

Search our weather history database for the weather conditions in past years. The results will help you decide how hot, cold, wet, or windy it might be!

Date:

Astronomy

Jan. 12, 2013 Rise Set
Actual Time 7:27 AM CST 5:23 PM CST
Civil Twilight 6:59 AM CST 5:51 PM CST
Nautical Twilight 6:27 AM CST 6:23 PM CST
Astronomical Twilight 5:56 AM CST 6:53 PM CST
Moon 7:49 AM CST (1/12) 6:49 PM CST (1/12)
Length of Visible Light 10h 52m
Length of Day
9h 56m
New Moon, 1% of the Moon is Illuminated
Jan 12
New Moon
Jan 18
First Quarter
Jan 26
Full
Feb 3
Last Quarter
Feb 10
New

Hourly Weather History & Observations

Time (CST) Temp. Windchill Dew Point Humidity Pressure Visibility Wind Dir Wind Speed Gust Speed Precip Events Conditions
12:53 AM 57.0 °F - 46.0 °F 67% 29.83 in 10.0 mi SSW 8.1 mph - N/A   Clear
1:53 AM 55.4 °F - 46.4 °F 72% 29.86 in 10.0 mi SSW 9.2 mph - N/A   Clear
2:53 AM 55.9 °F - 48.0 °F 75% 29.85 in 10.0 mi SSW 12.7 mph - N/A   Clear
3:53 AM 57.9 °F - 48.9 °F 72% 29.85 in 10.0 mi SW 9.2 mph - N/A   Mostly Cloudy
4:53 AM 57.9 °F - 50.0 °F 75% 29.84 in 10.0 mi SSW 6.9 mph - N/A   Overcast
5:53 AM 57.0 °F - 50.0 °F 77% 29.83 in 10.0 mi Calm Calm - N/A   Overcast
6:53 AM 54.0 °F - 50.0 °F 86% 29.85 in 10.0 mi Calm Calm - N/A   Scattered Clouds
7:22 AM 53.6 °F - 50.0 °F 88% 29.88 in 10.0 mi Calm Calm - N/A   Mostly Cloudy
7:53 AM 53.1 °F - 50.0 °F 89% 29.88 in 10.0 mi NW 6.9 mph - N/A   Overcast
8:53 AM 53.1 °F - 41.0 °F 64% 29.89 in 10.0 mi NNW 8.1 mph - N/A   Overcast
9:53 AM 53.1 °F - 34.0 °F 48% 29.88 in 10.0 mi NE 4.6 mph - N/A   Overcast
10:53 AM 52.0 °F - 34.0 °F 50% 29.89 in 10.0 mi NNE 5.8 mph - N/A   Overcast
11:53 AM 46.0 °F 41.0 °F 37.9 °F 73% 29.88 in 7.0 mi NNW 10.4 mph - 0.00 in Rain Light Rain
12:53 PM 43.0 °F 39.5 °F 39.9 °F 89% 29.85 in 6.0 mi North 5.8 mph - 0.03 in Rain Light Rain
1:53 PM 42.1 °F 38.4 °F 37.9 °F 85% 29.82 in 8.0 mi NNE 5.8 mph - 0.02 in   Overcast
2:28 PM 41.0 °F 33.5 °F 39.2 °F 93% 29.76 in 3.0 mi NE 13.8 mph 19.6 mph 0.07 in Rain Rain
2:53 PM 41.0 °F 37.1 °F - N/A% 29.79 in 7.0 mi Variable 5.8 mph - 0.07 in   Overcast
3:26 PM 41.0 °F 35.2 °F - N/A% 29.83 in 10.0 mi North 9.2 mph - 0.00 in Rain , Thunderstorm Light Rain
3:37 PM 41.0 °F 34.7 °F - N/A% 29.82 in 10.0 mi NE 10.4 mph 17.3 mph 0.01 in Rain , Thunderstorm Light Rain
3:53 PM 39.0 °F 31.8 °F - N/A% 29.81 in 5.0 mi NNE 11.5 mph 20.7 mph 0.01 in Rain Light Rain
4:53 PM 37.9 °F 33.5 °F 36.0 °F 93% 29.81 in 10.0 mi NNE 5.8 mph - 0.01 in   Overcast
5:53 PM 36.0 °F 28.0 °F 34.0 °F 93% 29.83 in 10.0 mi North 11.5 mph - 0.00 in   Overcast
6:53 PM 34.0 °F 25.0 °F 32.0 °F 92% 29.91 in 10.0 mi NNW 12.7 mph 18.4 mph 0.02 in   Overcast
7:53 PM 32.0 °F 23.6 °F 30.0 °F 92% 29.91 in 10.0 mi North 10.4 mph 19.6 mph 0.01 in   Overcast
8:53 PM 32.0 °F 24.8 °F 30.0 °F 92% 29.91 in 10.0 mi NNE 8.1 mph - 0.00 in   Overcast
9:53 PM 32.0 °F 22.5 °F 30.0 °F 92% 29.93 in 10.0 mi North 12.7 mph - N/A   Overcast
10:53 PM 32.0 °F 25.6 °F 28.9 °F 88% 29.92 in 10.0 mi NNE 6.9 mph 16.1 mph N/A   Overcast
11:53 PM 32.0 °F 25.6 °F 30.2 °F 93% 29.94 in 10.0 mi North 6.9 mph 18.4 mph N/A   Overcast